sat.trackr.live / text

‹ back to catalog

STARLINK-4365

NORAD 53228 · 2022-084AR

PAYLOAD ACTIVE UNKNOWN

§ Identity

Operator
Country
US
Launch date
2022-07-22
Launch site
AFWTR
Launch vehicle
Mass (kg)
RCS (m²)

Purposes: comms

External: N2YO · Heavens-Above · Gunter

§ Orbital elements

Epoch: 2026-05-25T02:27:03.715776Z

Period
95.64 min
Inclination
97.4475°
Eccentricity
0.0001875
Mean motion
15.05693735 rev/d
Perigee alt
548.1 km
Apogee alt
550.7 km
Semi-major
6,927.5 km
B*
-5.4648e-4
RAAN
205.1229°
Arg perigee
124.3220°
Mean anomaly
235.8185°
Rev number
21,081

§ Raw data

STARLINK-43651 53228U 22084AR  26145.10212634 -.00007944  00000+0 -54648-3 0  99982 53228  97.4475 205.1229 0001875 124.3220 235.8185 15.05693735210812

JSON: /api/v1/satellites/53228 · /tle

For live sub-satellite position, see the globe view (requires WebGL).

§ Visibility from observer

Set your observer location to see the next 7 days of passes ≥ 10°. The values pass through the URL so the page stays shareable.

No JS? Fill the form by hand. The geolocation button needs JavaScript.